Location: Township of Marena
(38.1747°N, 99.6798°W)
Time: 03:28:23
(UTC+00:00)

Cosmos 1386 Rocket - Pass Details

Date: 26 October 2020
Orbit: 930 x 1005 km, 83.0° (Epoch: 24 November)

Event Time Altitude Azimuth Distance (km) Brightness Sun altitude
Rises 01:29:10 0° 355° (N) 3,741 7.6 -20.7°
Reaches altitude 10° 01:31:44 10° 357° (N) 2,785 6.9 -21.2°
Maximum altitude 01:38:08 72° 82° (E) 1,047 4.4 -22.5°
Drops below altitude 10° 01:44:25 10° 167° (SSE) 2,736 6.7 -23.7°
Sets 01:46:55 0° 169° (S) 3,670 7.4 -24.2°
